sat.trackr.live / text

‹ back to catalog

STARLINK-6248

NORAD 57082 · 2023-088AL

PAYLOAD ACTIVE UNKNOWN

§ Identity

Operator
Country
US
Launch date
2023-06-22
Launch site
AFWTR
Launch vehicle
Mass (kg)
RCS (m²)

Purposes: comms

External: N2YO · Heavens-Above · Gunter

§ Orbital elements

Epoch: 2026-09-19T21:12:35.288064Z

Period
94.27 min
Inclination
43.0052°
Eccentricity
0.0001728
Mean motion
15.27575702 rev/d
Perigee alt
481.9 km
Apogee alt
484.2 km
Semi-major
6,861.2 km
B*
6.6948e-6
RAAN
79.0955°
Arg perigee
280.9285°
Mean anomaly
79.1372°
Rev number
18,020

§ Raw data

STARLINK-62481 57082U 23088AL  26262.88374176 -.00000078  00000+0  66948-5 0  99982 57082  43.0052  79.0955 0001728 280.9285  79.1372 15.27575702180206

JSON: /api/v1/satellites/57082 · /tle

For live sub-satellite position, see the globe view (requires WebGL).

§ Visibility from observer

Set your observer location to see the next 7 days of passes ≥ 10°. The values pass through the URL so the page stays shareable.

No JS? Fill the form by hand. The geolocation button needs JavaScript.